www.pogodaiklimat.ru

Погода и климат >> Архив погоды >> Иран >> Боджнурд


ПОГОДА в Боджнурде

  • Прогноз погоды в Боджнурде
  • Монитор погоды в Боджнурде

АРХИВ ПОГОДЫ в Боджнурде

Время (UTC), дата Ветер
(напр.,м/с)
 
Видим.   Явления Облачность Т
(С)
Тd
(С)
f
(%)
Тe
(С)
Тes
(С)
Комфортность P
(гПа)
Po
(гПа)
Тmin
(С)
Tmax
(С)
R
(мм)
R24
(мм)
S
(см)
15 10.09 СВ 4 20 км ясно +20.7 -0.2 25 +21 +21 комфорт 1015.2 896.7 +26.2
18 10.09 СВ 3 10 км ясно +18.5 -0.6 27 +19 +19 1015.8 897.9
21 10.09 СВ 4 10 км ясно +14.7 -0.4 36 +14 +14 1015.5 897.8
00 11.09 штиль 0 10 км ясно +11.5 -1.0 42 +11 +11 1016.4 898.3
03 11.09 штиль 0 10 км ясно +12.3 -1.1 39 +12 +13 1018.8 899.6 +9.6
06 11.09 нст 1 20 км ясно +19.3 -1.6 24 +20 +33 опасность
простуды
1017.9 899.7
09 11.09 В 2 20 км ясно +24.0 -1.7 18 +22 +37 комфорт 1016.6 898.7 666
12 11.09 СВ 3 20 км ясно +26.0 -4.2 13 +23 +27 комфорт 1015.7 897.7
15 11.09 СВ 4 20 км ясно +21.0 -2.3 21 +21 +21 комфорт 1017.2 898.2 +27.0
18 11.09 С 2 20 км ясно +17.1 -0.4 30 +18 +18 1017.9 899.5
21 11.09 СЗ 4 10 км 1/1 600 м
[Sc]
+17.1 +10.5 65 +17 +17 1016.4 899.3
00 12.09 В 1 10 км ясно +13.8 +3.6 50 +14 +14 1016.9 899.3
03 12.09 штиль 0 10 км 1/1 480 м
[Cu hum]
+13.1 +6.6 65 +13 +14 1018.6 899.9 +11.6 666
06 12.09 СВ 2 10 км 3/3 900 м
[Cu hum]
+19.7 +7.2 44 +21 +29 комфорт 1018.2 900.0
09 12.09 СЗ 2 10 км 1/1 900 м
[Cu hum]
+22.4 +6.6 36 +23 +36 комфорт 1015.7 898.3 666
12 12.09 З 5 10 км 1/1 600 м
[Cu hum]
+24.5 +5.1 29 +24 +26 комфорт 1014.7 897.1
15 12.09 З 7 10 км 5/3 900 м
[Sc Ac und]
+19.0 +10.8 59 +19 +19 1016.4 897.6 +25.6 666
18 12.09 З 3 10 км 1/1 300 м
[St Ac und]
+16.1 +10.0 67 +16 +16 1017.4 899.2
21 12.09 С 3 10 км 1/1 600 м
[St]
+14.6 +10.6 77 +14 +14 1016.8 898.9
00 13.09 СЗ 1 10 км 1/1 600 м
[St]
+12.9 +10.0 83 +13 +13 1016.8 898.9
03 13.09 С 2 9000 м дымка 5/5 300 м
[St]
+13.2 +10.1 81 +12 +13 1018.4 899.4 +11.1 666
06 13.09 штиль 0 10 км 5/5 300 м
[Cu Sc]
+18.3 +8.1 51 +18 +26 1018.3 899.6
09 13.09 штиль 0 10 км 1/1 300 м
[Cu hum]
+22.5 +2.8 27 +22 +39 комфорт 1016.6 898.5 666
12 13.09 З 6 10 км 1/1 450 м
[Cu hum Ci fib]
+22.5 +6.6 36 +23 +25 комфорт 1015.3 897.1
15 13.09 З 8 10 км 6/6 450 м
[Sc diur, vesp]
+18.0 +10.2 60 +17 +17 1016.5 897.5 +23.2 666
18 13.09 нст 1 10 км 3/1 900 м
[Sc Ac und]
+16.1 +10.8 71 +17 +17 1018.1 899.6
21 13.09 СЗ 3 10 км 4/3 1050 м
[Sc Ac und]
+14.8 +10.9 77 +14 +14 1017.2 899.3
00 14.09 СЗ 1 8000 м дымка 3/3 900 м
[Sc]
+12.3 +9.7 84 +12 +12 1017.7 899.3
03 14.09 С 2 10 км 3/3 600 м
[St Ac und]
+13.6 +10.1 79 +13 +14 1019.2 900.0 +11.2 666
06 14.09 штиль 0 10 км 8/3 750 м
[Sc Ac und]
+17.8 +9.5 58 +18 +23 1019.4 900.5
09 14.09 З 6 20 км 6/4 900 м
[Cb calv Ac und]
+21.6 +9.6 46 +23 +26 комфорт 1017.9 899.7 666
12 14.09 СЗ 6 20 км 4/3 1200 м
[Cu med, cong Ac und]
+22.7 +6.8 36 +23 +25 комфорт 1017.6 899.1
15 14.09 З 3 20 км 3/1 1200 м
[Sc diur, vesp Ac und]
+19.1 +8.3 50 +20 +20 1018.5 899.5 +24.2
18 14.09 З 5 10 км 3/3 1200 м
[Sc diur, vesp]
+17.3 +8.9 58 +17 +17 1018.9 900.3
21 14.09 штиль 0 10 км ясно +15.4 +9.5 68 +15 +15 1018.2 900.1
00 15.09 штиль 0 10 км 1/1 600 м
[Cu hum]
+11.1 +8.6 85 +10 +10 1018.8 900.0
03 15.09 штиль 0 7000 м дымка 1/1 300 м
[St]
+9.5 +7.3 86 +9 +10 1020.3 900.3 +9.5
06 15.09 В 3 10 км 1/1 600 м
[Cu hum]
+18.6 +9.4 55 +19 +27 1019.1 900.7
09 15.09 С 2 10 км 1/1 600 м
[Sc]
+23.4 +5.0 30 +23 +36 комфорт 1017.0 899.2
12 15.09 СЗ 5 10 км ясно +25.2 +2.7 23 +24 +26 комфорт 1016.7 898.4
15 15.09 СЗ 3 10 км ясно +20.2 -0.5 25 +21 +21 комфорт 1018.7 898.8 +26.6
18 15.09 В 1 10 км ясно +18.8 +1.0 30 +20 +20 1017.6 899.4
21 15.09 З 3 10 км ясно +14.0 +1.9 44 +13 +13 1017.5 899.3
00 16.09 СЗ 2 10 км ясно +9.5 +1.0 55 +8 +8 1018.7 899.9
03 16.09 З 1 10 км ясно +10.7 +2.0 55 +11 +12 1021.1 901.2 +7.8
06 16.09 ЮВ 2 15 км ясно +20.8 +2.6 30 +22 +32 комфорт 1019.8 901.8
09 16.09 С 2 15 км ясно +25.2 +0.9 20 +24 +37 комфорт 1018.6 900.6 666
12 16.09 нст 1 15 км ясно +27.5 +0.4 17 +25 +30 комфорт 1016.5 898.3
15 16.09 нст 1 15 км ясно +21.8 -0.2 23 +21 +21 комфорт 1017.4 898.2 +28.6
18 16.09 штиль 0 15 км ясно +16.5 0.0 33 +17 +17 1016.4 898.3
21 16.09 С 2 10 км ясно +16.6 -0.2 32 +17 +17 1014.7 897.7
00 17.09 штиль 0 10 км ясно +17.1 -0.7 30 +17 +17 1013.8 897.3
03 17.09 СВ 3 10 км ясно +15.2 -0.3 35 +15 +15 1016.0 897.9 +14.4
06 17.09 штиль 0 10 км ясно +22.3 -0.7 22 +21 +35 комфорт 1015.3 897.6
09 17.09 штиль 0 10 км ясно +30.5 +0.1 14 +28 +46 жарко 1011.1 895.5

 

Местоположение метеостанции Боджнурд (Иран): широта 37.47 долгота 57.33 высота над уровнем моря 1091 м.

В архиве по умолчанию представлена погода в Боджнурде за последнюю неделю. Архивные данные за месяц целиком и за предыдущие месяцы, начиная с января 2011 года, Вы можете получить, выбрав интересующий диапазон дат из раскрывающегося списка и нажав кнопку "Ввод!".


*Определитесь, кто Вы:
робот инопланетянин человек

Внимание! Время в таблицах - всемирное. Для получения местного времени необходимо прибавить поправку, которая равна 3.5 ч.

Смотрите также архив погоды в соседних городах и на ближайших метеорологических станциях:

Погода в Unknown (Туркменистан) (66 км)
Погода в Ашхабаде (город Ашхабад, Туркменистан) (101 км)
Погода в Бахарлы (Ахалский велаят, Туркменистан) (107 км)
Погода в Кучане (Иран) (113 км)
Погода в Мараве Таппе (Иран) (131 км)
Погода в Гаррыгале (Балканский велаят, Туркменистан) (140 км)
Погода в Себзеваре (Иран) (142 км)
Погода в Сердаре (Балканский велаят, Туркменистан) (191 км)
Погода в Каке (Ахалский велаят, Туркменистан) (204 км)
Погода в Гызылетреке (Балканский велаят, Туркменистан) (225 км)

Пояснения к столбцам:

Ветер - указаны скорость ветра в м/с - средняя за 10 мин, порывы в срок и между сроками (в фигурных скобках) и направление, откуда дует ветер: С - северный, СВ - северо-восточный, В - восточный, ЮВ - юго-восточный, Ю - южный, ЮЗ - юго-западный, З - западный, СЗ - северо-западный.
Видимость - горизонтальная дальность видимости в метрах или километрах. При видимости от 1 до 10 км при отсутствии осадков обычно наблюдается дымка, при ухудшении видимости до 1 км и менее - туман. В сухую погоду видимость может ухудшаться дымом, пылью или мглою.
Явления - указаны атмосферные явления, наблюдавшиеся в срок или в последний час перед сроком; фигурными скобками обозначены явления, наблюдавшиеся между сроками (за 1-3 часа до срока); квадратными скобками обозначены град или гололедные отложения с указанием их диаметра в мм.
Облачность - указаны через наклонную черту общая и нижняя облачность в баллах и высота нижней границы облаков в метрах; квадратными скобками обозначены формы облаков: Ci - перистые, Cs - перисто-слоистые, Cc - перисто-кучевые, Ac - высококучевые, As - высокослоистые, Sc - слоисто-кучевые, Ns - слоисто-дождевые, Cu - кучевые, Cb - кучево-дождевые. Подробнее классификацию облаков см. в Атласе облаков (PDF).
T - Температура воздуха - температура, измеренная на высоте 2 м над землей.
Td - Температура точки росы - температура, при понижении до которой содержащийся в воздухе водяной пар достигнет насыщения.
f - Относительная влажность воздуха - влажноcть воздуха, измеренная на высоте 2 м над землей.
Te - Эффективная температура - температура, которую ощущает одетый по сезону человек в тени. Характеристика душности погоды. При расчете учитывается влияние влажности воздуха и скорости ветра на теплоощущения человека.
Tes - Эффективная температура на солнце - температура, которую ощущает человек, с поправкой на солнечный нагрев. Характеристика знойности погоды. Зависит от высоты солнца над горизонтом, облачности и скорости ветра. Ночью, в пасмурную погоду, а также при ветре 12 м/с и более поправка равна нулю.
P - Атмосферное давление - приведенное к уровню моря атмосферное давление.
Po - Атмосферное давление - измеренное на уровне метеостанции атмосферное давление.
Tmin - Минимальная температура - минимум температуры воздуха на высоте 2 м над землей.
Tmax - Максимальная температура - максимум температуры воздуха на высоте 2 м над землей.
R - Количество осадков - Количество выпавших осадков за период времени, мм. При наведении курсора мыши на число - период времени, за который выпало указанное количество осадков.
R24 - Количество осадков - Количество выпавших осадков за 24 часа, мм.
S - Снежный покров - Высота снежного покрова, см. При наведении курсора мыши на число - состояние снежного покрова и степень покрытия местности в баллах.